Location: Berkeley
(37.8716°N, 122.2727°W)
Time: 14:46:52
(UTC-07:00)

Hubble Space Telescope - Visible Passes

Search period start: 28 March 2017 00:00
Search period end: 07 April 2017 00:00
Orbit: 538 x 542 km, 28.5° (Epoch: 27 March)

Date Brightness Start Highest point End Pass type
(mag) Time Alt. Az. Time Alt. Az. Time Alt. Az.
28 Mar 2.7 05:16:15 17° S 05:16:21 17° SSE 05:19:07 10° SE visible
29 Mar 2.7 05:06:45 19° SSE 05:06:45 19° SSE 05:09:12 10° SE visible
30 Mar 2.8 04:57:14 18° SSE 04:57:14 18° SSE 04:59:14 10° SE visible
31 Mar 3.0 04:47:45 17° SE 04:47:45 17° SE 04:49:13 10° SE visible
31 Mar 2.6 06:23:45 10° SW 06:26:42 19° S 06:29:39 10° SE visible
01 Apr 3.2 04:38:18 14° SE 04:38:18 14° SE 04:39:10 10° SE visible
01 Apr 2.6 06:13:50 10° SW 06:16:35 17° SSW 06:19:20 10° SSE visible
02 Apr 3.5 04:28:54 11° SE 04:28:54 11° SE 04:29:04 10° SE visible
02 Apr 2.7 06:04:17 11° SW 06:06:28 15° SSW 06:08:56 10° SSE visible
03 Apr 2.8 05:54:57 12° SW 05:56:21 13° SSW 05:58:23 10° SSE visible
04 Apr 2.9 05:45:43 11° SSW 05:46:12 11° SSW 05:47:32 10° S visible
